This is the latest recevied weather packets stored in our database for station/object KC5AV. If no packets are shown the sender has not sent any weather packets the latest 10 day(s).
| Time | Temp. | Humidity | Pressure | Rain* | Wind** | Luminosity | Snow |
|---|---|---|---|---|---|---|---|
| 1777948221 | 21.67° C | 68% | 1009.8 hPa | 0 mm | - | 0 W/m² | - |
| 1777947919 | 21.67° C | 67% | 1010 hPa | 0 mm | - | 0 W/m² | - |
| 1777947616 | 21.67° C | 67% | 1009.8 hPa | 0 mm | - | 0 W/m² | - |
| 1777947312 | 21.67° C | 67% | 1009.7 hPa | 0 mm | - | 0 W/m² | - |
| 1777947008 | 21.67° C | 66% | 1009.5 hPa | 0 mm | - | 0 W/m² | - |
| 1777946703 | 21.67° C | 66% | 1009.5 hPa | 0 mm | - | 0 W/m² | - |
| 1777946400 | 22.22° C | 65% | 1009.6 hPa | 0 mm | - | 0 W/m² | - |
| 1777946098 | 21.67° C | 65% | 1009.4 hPa | 0 mm | - | 0 W/m² | - |
| 1777945794 | 22.22° C | 65% | 1009.5 hPa | 0 mm | - | 0 W/m² | - |
| 1777945491 | 22.22° C | 64% | 1009.4 hPa | 0 mm | - | 0 W/m² | - |
| 1777945189 | 22.22° C | 64% | 1009.5 hPa | 0 mm | - | 0 W/m² | - |
| 1777944886 | 22.22° C | 64% | 1009.5 hPa | 0 mm | - | 0 W/m² | - |
| 1777944583 | 22.22° C | 63% | 1009.2 hPa | 0 mm | - | 0 W/m² | - |
| 1777944281 | 22.22° C | 62% | 1009.3 hPa | 0 mm | - | 0 W/m² | - |
| 1777943978 | 22.22° C | 62% | 1009.3 hPa | 0 mm | - | 0 W/m² | - |
| 1777943674 | 22.22° C | 62% | 1009.5 hPa | 0 mm | - | 0 W/m² | - |
| 1777943370 | 22.78° C | 61% | 1009.3 hPa | 0 mm | - | 1 W/m² | - |
| 1777943066 | 22.78° C | 60% | 1009.1 hPa | 0 mm | - | 1 W/m² | - |
| 1777942762 | 22.78° C | 60% | 1009.1 hPa | 0 mm | - | 2 W/m² | - |
| 1777942459 | 23.33° C | 59% | 1009.1 hPa | 0 mm | - | 4 W/m² | - |
| 1777942157 | 23.33° C | 57% | 1009 hPa | 0 mm | - | 7 W/m² | - |
| 1777941853 | 23.89° C | 56% | 1009.4 hPa | 0 mm | - | 10 W/m² | - |
| 1777941550 | 23.89° C | 56% | 1009.2 hPa | 0 mm | - | 14 W/m² | - |
| 1777941247 | 23.89° C | 55% | 1009.4 hPa | 0 mm | - | 16 W/m² | - |
| 1777940943 | 24.44° C | 53% | 1009.2 hPa | 0 mm | - | 23 W/m² | - |
* Rain latest hour (hover to see other rain measurements)
** Current wind speed in m/s (hover to see current wind gust speed)